�������l�o���
Date,Time,MP-1(��Sv/h),MP-2(��Sv/h),MP-3(��Sv/h),MP-4(��Sv/h),MP-5(��Sv/h),MP-6(��Sv/h),MP-7(��Sv/h),MP-8(��Sv/h),����,����(m/s),���J
2024/05/18,00:00,0.497,0.756,0.477,0.932,0.674,0.311,0.544,0.510,��,2.5,��
2024/05/18,00:10,0.495,0.755,0.477,0.932,0.675,0.310,0.545,0.511,���쓌,1.4,��
2024/05/18,00:20,0.495,0.755,0.477,0.931,0.672,0.311,0.544,0.510,���쓌,2.6,��
2024/05/18,00:30,0.494,0.757,0.478,0.933,0.673,0.311,0.543,0.511,�쓌,2.5,��
2024/05/18,00:40,0.495,0.757,0.476,0.935,0.675,0.312,0.545,0.511,�쓌,1.7,��
2024/05/18,00:50,0.496,0.758,0.477,0.932,0.675,0.311,0.545,0.510,�쓌,1.7,��
2024/05/18,01:00,0.496,0.757,0.476,0.934,0.673,0.310,0.546,0.510,�쓌,1.9,��
2024/05/18,01:10,0.496,0.755,0.477,0.930,0.674,0.310,0.545,0.510,���쓌,1.2,��
2024/05/18,01:20,0.494,0.753,0.477,0.932,0.674,0.311,0.544,0.509,��쓌,1.5,��
2024/05/18,01:30,0.494,0.756,0.476,0.933,0.673,0.311,0.545,0.512,��쐼,1.7,��
2024/05/18,01:40,0.496,0.756,0.477,0.933,0.673,0.310,0.544,0.511,�쐼,2.6,��
2024/05/18,01:50,0.496,0.755,0.476,0.933,0.675,0.311,0.545,0.511,�쐼,2.0,��
2024/05/18,02:00,0.495,0.755,0.477,0.935,0.675,0.312,0.545,0.510,�쐼,2.3,��
2024/05/18,02:10,0.495,0.755,0.478,0.934,0.673,0.311,0.545,0.510,�쐼,3.8,��
2024/05/18,02:20,0.494,0.756,0.478,0.932,0.673,0.313,0.544,0.511,�쐼,4.4,��
2024/05/18,02:30,0.495,0.755,0.476,0.931,0.672,0.311,0.545,0.510,�쐼,5.1,��
2024/05/18,02:40,0.495,0.756,0.476,0.933,0.674,0.310,0.546,0.510,�쐼,4.9,��
2024/05/18,02:50,0.495,0.756,0.475,0.934,0.676,0.311,0.545,0.510,�쐼,4.9,��
2024/05/18,03:00,0.496,0.757,0.476,0.931,0.673,0.311,0.546,0.509,�쐼,5.5,��
2024/05/18,03:10,0.496,0.754,0.477,0.933,0.674,0.310,0.546,0.511,�쐼,5.0,��
2024/05/18,03:20,0.495,0.756,0.476,0.933,0.675,0.311,0.545,0.511,�쐼,4.6,��
2024/05/18,03:30,0.495,0.755,0.477,0.932,0.675,0.310,0.546,0.509,�쐼,4.8,��
2024/05/18,03:40,0.494,0.755,0.476,0.931,0.673,0.311,0.546,0.510,�쐼,4.8,��
2024/05/18,03:50,0.494,0.754,0.477,0.932,0.675,0.312,0.546,0.510,�쐼,5.2,��
2024/05/18,04:00,0.495,0.755,0.476,0.934,0.674,0.311,0.548,0.510,�쐼,5.5,��
2024/05/18,04:10,0.495,0.757,0.477,0.931,0.674,0.312,0.547,0.510,�쐼,5.4,��
2024/05/18,04:20,0.494,0.755,0.477,0.932,0.675,0.311,0.547,0.510,�쐼,5.3,��
2024/05/18,04:30,0.494,0.754,0.475,0.933,0.673,0.311,0.547,0.510,�쐼,4.9,��
2024/05/18,04:40,0.494,0.755,0.477,0.933,0.675,0.311,0.546,0.510,�쐼,4.3,��
2024/05/18,04:50,0.496,0.757,0.477,0.932,0.675,0.310,0.546,0.510,�쐼,4.6,��
2024/05/18,05:00,0.493,0.756,0.476,0.932,0.674,0.312,0.546,0.511,�쐼,4.2,��
2024/05/18,05:10,0.495,0.755,0.476,0.931,0.673,0.311,0.546,0.511,�쐼,3.4,��
2024/05/18,05:20,0.494,0.756,0.478,0.933,0.673,0.311,0.547,0.512,�쐼,3.3,��
2024/05/18,05:30,0.494,0.754,0.477,0.933,0.674,0.311,0.546,0.510,�쐼,3.5,��
2024/05/18,05:40,0.495,0.755,0.475,0.933,0.673,0.311,0.545,0.511,��쐼,3.2,��
2024/05/18,05:50,0.495,0.755,0.477,0.934,0.673,0.311,0.548,0.511,��쐼,3.0,��
2024/05/18,06:00,0.497,0.757,0.477,0.932,0.673,0.311,0.546,0.510,��쐼,3.2,��
2024/05/18,06:10,0.496,0.755,0.476,0.933,0.673,0.312,0.547,0.510,��쐼,3.2,��
2024/05/18,06:20,0.497,0.755,0.477,0.935,0.674,0.311,0.546,0.511,��쐼,3.9,��
2024/05/18,06:30,0.496,0.757,0.478,0.934,0.674,0.311,0.545,0.510,��쐼,3.9,��
2024/05/18,06:40,0.494,0.753,0.479,0.932,0.676,0.311,0.547,0.512,��쐼,3.9,��
2024/05/18,06:50,0.497,0.753,0.477,0.933,0.674,0.311,0.548,0.511,�쐼,3.1,��
2024/05/18,07:00,0.495,0.753,0.476,0.934,0.674,0.310,0.548,0.511,�쐼,1.9,��
2024/05/18,07:10,0.494,0.754,0.478,0.933,0.674,0.309,0.547,0.512,��쐼,2.0,��
2024/05/18,07:20,0.494,0.753,0.476,0.934,0.673,0.310,0.547,0.513,��,2.3,��
2024/05/18,07:30,0.494,0.755,0.478,0.934,0.673,0.311,0.545,0.512,��,1.7,��
2024/05/18,07:40,0.494,0.755,0.477,0.936,0.675,0.311,0.546,0.511,��,2.3,��
2024/05/18,07:50,0.493,0.755,0.478,0.935,0.675,0.311,0.544,0.511,��쓌,2.2,��
2024/05/18,08:00,0.494,0.758,0.478,0.933,0.675,0.310,0.544,0.508,��쓌,2.6,��
2024/05/18,08:10,0.494,0.756,0.477,0.935,0.674,0.310,0.545,0.510,��쓌,4.4,��
2024/05/18,08:20,0.494,0.756,0.476,0.935,0.675,0.311,0.545,0.507,��쓌,4.9,��
2024/05/18,08:30,0.495,0.758,0.478,0.935,0.674,0.311,0.545,0.508,��쓌,5.1,��
2024/05/18,08:40,0.495,0.755,0.478,0.935,0.674,0.311,0.546,0.510,��쓌,6.6,��
2024/05/18,08:50,0.495,0.756,0.478,0.935,0.673,0.311,0.545,0.510,��쓌,6.4,��
2024/05/18,09:00,0.493,0.757,0.477,0.937,0.673,0.311,0.544,0.510,��쓌,6.9,��
2024/05/18,09:10,0.497,0.757,0.476,0.936,0.675,0.310,0.545,0.510,��쓌,7.6,��
2024/05/18,09:20,0.497,0.755,0.477,0.935,0.673,0.312,0.545,0.509,��쓌,8.6,��
2024/05/18,09:30,0.497,0.757,0.475,0.937,0.674,0.311,0.543,0.508,��쓌,8.6,��
2024/05/18,09:40,0.494,0.758,0.478,0.935,0.674,0.311,0.544,0.510,��쓌,10.2,��
2024/05/18,09:50,0.496,0.757,0.476,0.938,0.674,0.312,0.546,0.509,��쓌,10.6,��
2024/05/18,10:00,0.497,0.757,0.477,0.936,0.674,0.311,0.545,0.510,��쓌,9.2,��
2024/05/18,10:10,0.494,0.759,0.477,0.937,0.676,0.311,0.546,0.508,��쓌,10.5,��
2024/05/18,10:20,0.495,0.757,0.478,0.935,0.675,0.312,0.545,0.509,��,9.7,��
2024/05/18,10:30,0.496,0.758,0.478,0.938,0.675,0.314,0.546,0.510,��쓌,11.8,��
2024/05/18,10:40,0.496,0.759,0.477,0.936,0.678,0.311,0.547,0.510,��쓌,10.0,��
2024/05/18,10:50,0.496,0.758,0.478,0.936,0.676,0.310,0.545,0.511,��쓌,11.3,��
2024/05/18,11:00,0.497,0.758,0.478,0.936,0.677,0.312,0.547,0.511,��쓌,12.0,��
2024/05/18,11:10,0.495,0.760,0.477,0.935,0.677,0.313,0.545,0.511,��쓌,12.0,��
2024/05/18,11:20,0.497,0.760,0.480,0.932,0.677,0.312,0.545,0.510,��쓌,10.0,��
2024/05/18,11:30,0.497,0.762,0.479,0.935,0.678,0.312,0.546,0.510,��쓌,12.4,��
2024/05/18,11:40,0.498,0.760,0.479,0.934,0.677,0.312,0.546,0.510,��쓌,12.1,��
2024/05/18,11:50,0.496,0.760,0.479,0.935,0.678,0.313,0.545,0.510,��쓌,11.0,��
2024/05/18,12:00,0.497,0.761,0.479,0.935,0.679,0.312,0.546,0.510,��,10.2,��
2024/05/18,12:10,0.498,0.760,0.480,0.938,0.680,0.313,0.545,0.510,��쓌,9.6,��
2024/05/18,12:20,0.499,0.759,0.479,0.937,0.679,0.313,0.547,0.511,��쓌,9.3,��
2024/05/18,12:30,0.499,0.759,0.479,0.938,0.680,0.312,0.546,0.511,��쓌,12.2,��
2024/05/18,12:40,0.498,0.762,0.480,0.936,0.679,0.313,0.546,0.510,��쓌,13.6,��
2024/05/18,12:50,0.498,0.763,0.479,0.938,0.681,0.313,0.545,0.510,��쓌,13.8,��
2024/05/18,13:00,0.499,0.763,0.480,0.935,0.682,0.313,0.545,0.510,��쓌,11.9,��
2024/05/18,13:10,0.500,0.761,0.479,0.935,0.681,0.313,0.545,0.510,��쓌,14.4,��
2024/05/18,13:20,0.499,0.762,0.479,0.935,0.681,0.313,0.545,0.512,��쓌,13.0,��
2024/05/18,13:30,0.499,0.764,0.479,0.939,0.680,0.312,0.545,0.510,��쓌,13.3,��
2024/05/18,13:40,0.499,0.762,0.480,0.938,0.681,0.314,0.547,0.510,��쓌,14.1,��
2024/05/18,13:50,0.500,0.765,0.481,0.937,0.683,0.313,0.546,0.510,��쓌,14.1,��
2024/05/18,14:00,0.499,0.765,0.481,0.934,0.680,0.313,0.545,0.511,��쓌,11.8,��
2024/05/18,14:10,0.498,0.763,0.481,0.937,0.682,0.313,0.544,0.510,��쓌,13.0,��
2024/05/18,14:20,0.499,0.762,0.480,0.938,0.682,0.313,0.546,0.510,��,11.1,��
2024/05/18,14:30,0.499,0.762,0.480,0.936,0.683,0.314,0.546,0.510,��쓌,8.9,��
2024/05/18,14:40,0.500,0.764,0.480,0.940,0.682,0.313,0.545,0.511,��쓌,9.1,��
2024/05/18,14:50,0.499,0.763,0.481,0.937,0.685,0.313,0.545,0.509,��쓌,10.2,��
2024/05/18,15:00,0.500,0.765,0.480,0.939,0.683,0.314,0.547,0.510,��,11.7,��
2024/05/18,15:10,0.499,0.762,0.479,0.939,0.682,0.314,0.546,0.511,��,11.6,��
2024/05/18,15:20,0.499,0.764,0.479,0.939,0.682,0.313,0.546,0.511,��쓌,11.8,��
2024/05/18,15:30,0.499,0.763,0.481,0.938,0.683,0.313,0.545,0.509,��쓌,11.6,��
2024/05/18,15:40,0.499,0.764,0.480,0.940,0.682,0.314,0.545,0.510,��쓌,9.5,��
2024/05/18,15:50,0.500,0.763,0.480,0.939,0.684,0.313,0.546,0.511,��,10.2,��
2024/05/18,16:00,0.499,0.764,0.479,0.938,0.682,0.313,0.546,0.510,��쓌,11.3,��
2024/05/18,16:10,0.499,0.764,0.480,0.940,0.683,0.313,0.546,0.510,��쓌,10.8,��
2024/05/18,16:20,0.499,0.765,0.480,0.940,0.684,0.315,0.546,0.511,��쓌,11.6,��
2024/05/18,16:30,0.499,0.762,0.479,0.939,0.683,0.313,0.543,0.512,��쓌,14.4,��
2024/05/18,16:40,0.499,0.763,0.480,0.942,0.683,0.312,0.545,0.510,��쓌,15.3,��
2024/05/18,16:50,0.498,0.762,0.479,0.940,0.685,0.313,0.544,0.512,��쓌,14.7,��
2024/05/18,17:00,0.500,0.764,0.479,0.940,0.684,0.313,0.544,0.509,��쓌,13.5,��
2024/05/18,17:10,0.498,0.762,0.479,0.942,0.684,0.312,0.545,0.512,��,11.9,��
2024/05/18,17:20,0.500,0.763,0.481,0.940,0.684,0.313,0.546,0.510,��,10.0,��
2024/05/18,17:30,0.498,0.764,0.479,0.939,0.684,0.312,0.545,0.510,��,9.2,��
2024/05/18,17:40,0.498,0.764,0.481,0.941,0.682,0.312,0.546,0.511,��,11.0,��
2024/05/18,17:50,0.501,0.765,0.480,0.942,0.683,0.312,0.544,0.511,��,11.3,��
2024/05/18,18:00,0.500,0.765,0.479,0.942,0.682,0.313,0.545,0.513,��,10.2,��
2024/05/18,18:10,0.499,0.766,0.481,0.940,0.683,0.313,0.546,0.513,��,9.2,��
2024/05/18,18:20,0.501,0.764,0.481,0.941,0.681,0.312,0.547,0.514,��,8.4,��
2024/05/18,18:30,0.499,0.766,0.480,0.943,0.683,0.314,0.546,0.514,��,8.1,��
2024/05/18,18:40,0.497,0.767,0.479,0.943,0.685,0.313,0.545,0.514,��,8.2,��
2024/05/18,18:50,0.499,0.765,0.479,0.942,0.685,0.313,0.545,0.514,��,7.9,��
2024/05/18,19:00,0.498,0.766,0.479,0.943,0.684,0.314,0.545,0.514,��,6.3,��
2024/05/18,19:10,0.500,0.769,0.479,0.944,0.687,0.313,0.547,0.512,��쐼,7.6,��
2024/05/18,19:20,0.499,0.768,0.479,0.943,0.686,0.314,0.546,0.514,��쐼,6.9,��
2024/05/18,19:30,0.499,0.767,0.482,0.944,0.685,0.313,0.547,0.514,��,6.5,��
2024/05/18,19:40,0.500,0.767,0.482,0.945,0.687,0.313,0.546,0.512,��쐼,6.0,��
2024/05/18,19:50,0.498,0.767,0.482,0.944,0.687,0.315,0.548,0.513,�쐼,5.0,��
2024/05/18,20:00,0.499,0.768,0.481,0.943,0.685,0.314,0.547,0.513,��쐼,4.0,��
2024/05/18,20:10,0.501,0.767,0.482,0.944,0.688,0.315,0.547,0.513,��쐼,5.1,��
2024/05/18,20:20,0.502,0.768,0.481,0.942,0.687,0.315,0.547,0.513,��,4.6,��
2024/05/18,20:30,0.500,0.767,0.483,0.945,0.687,0.314,0.546,0.511,��쐼,4.6,��
2024/05/18,20:40,0.502,0.767,0.483,0.946,0.688,0.315,0.548,0.513,��쐼,6.3,��
2024/05/18,20:50,0.501,0.768,0.481,0.944,0.688,0.315,0.547,0.513,��쐼,6.2,��
2024/05/18,21:00,0.502,0.765,0.483,0.945,0.688,0.315,0.548,0.514,��,5.6,��
2024/05/18,21:10,0.501,0.769,0.483,0.944,0.686,0.314,0.547,0.513,��,5.4,��
2024/05/18,21:20,0.502,0.769,0.481,0.944,0.685,0.315,0.548,0.512,��,6.1,��
2024/05/18,21:30,0.501,0.765,0.482,0.945,0.685,0.313,0.548,0.512,��,5.2,��
2024/05/18,21:40,0.501,0.766,0.482,0.943,0.685,0.315,0.549,0.512,��,4.4,��
2024/05/18,21:50,0.501,0.767,0.484,0.945,0.687,0.314,0.546,0.512,��쐼,5.0,��
2024/05/18,22:00,0.502,0.767,0.482,0.945,0.687,0.314,0.547,0.514,��쐼,4.9,��
2024/05/18,22:10,0.500,0.767,0.482,0.945,0.688,0.315,0.548,0.513,��쐼,4.9,��
2024/05/18,22:20,0.501,0.768,0.481,0.945,0.686,0.314,0.549,0.513,��쐼,5.2,��
2024/05/18,22:30,0.503,0.768,0.483,0.943,0.687,0.315,0.547,0.512,��쐼,5.6,��
2024/05/18,22:40,0.501,0.768,0.482,0.944,0.688,0.314,0.549,0.513,��쐼,4.9,��
2024/05/18,22:50,0.501,0.765,0.483,0.945,0.687,0.315,0.549,0.512,��쐼,4.5,��
2024/05/18,23:00,0.502,0.768,0.481,0.943,0.686,0.315,0.551,0.513,��쐼,4.8,��
2024/05/18,23:10,0.502,0.766,0.482,0.943,0.685,0.314,0.548,0.513,�쐼,3.8,��
2024/05/18,23:20,0.501,0.767,0.483,0.944,0.686,0.315,0.549,0.512,��쐼,3.0,��
2024/05/18,23:30,0.501,0.765,0.481,0.944,0.685,0.315,0.550,0.513,�쐼,2.0,��
2024/05/18,23:40,0.503,0.767,0.481,0.944,0.684,0.314,0.548,0.512,���쐼,1.9,��
2024/05/18,23:50,0.502,0.767,0.483,0.943,0.686,0.314,0.550,0.513,�쐼,1.5,��
